Snowfall_Accumulation
0.0 0.0 0.0 0.0 0.0 0.0 0.1 0.0 0.9 0.0 0.0 0.0 0.0 0.0 0.0 0.0 0.0 0.0 0.0 0.0 0.0 0.0 0.0 0.0 0.0 0.0 0.0 0.0 0.0 0.0 0.0 0.0 0.0 0.0 0.0 0.0 0.0 0.0 0.0 0.0 0.0 0.0 0.0 0.0
0.0 0.0 0.0 0.0 0.0 0.0 0.0 0.0 0.0 0.0 0.0 0.0 0.0 0.0 0.0 0.0 0.0 0.0 0.0 0.0 0.0 0.0 0.0 0.0 0.0 0.0 0.0 0.0 0.0 0.0 0.0 0.0 0.0 0.0 0.0 0.0 0.0 0.0 0.0 0.0 0.0 0.0 0.0 0.0
0.0 0.0 0.0 0.1 0.0 0.0 0.0 0.0 0.0 0.0 0.0 0.0 0.0 0.0 0.0 0.0 0.0 0.0 0.0 0.0 0.0 0.0 0.0 0.0 0.0 0.0 0.0 0.0 0.0 0.0 0.0 0.0 0.0 0.0 0.0 0.0 0.0 0.0 0.0 0.0 0.0 0.0 0.0 0.0
0.5 0.1 1.1 0.0 0.0 0.0 0.0 0.0 0.0 0.0 0.0 0.0 0.0 0.0 0.0 0.0 0.0 0.0 0.0 0.0 0.0 0.0 0.0 0.0 0.0 0.0 0.0 0.0 0.0 0.0 0.0 0.0 0.0 0.0 0.0 0.0 0.0 0.0 0.0 0.0 0.0 0.0 0.0 0.0
1.3 0.3 0.0 0.0 0.0 0.0 0.0 0.0 0.0 0.0 0.0 0.0 0.0 0.0 0.1 0.1 0.1 0.1 0.0 0.0 0.0 0.0 0.0 0.0 0.0 0.0 0.0 0.0 0.0 0.0 0.0 0.0 0.0 0.0 0.0 0.0 0.0 0.0 0.0 0.0 0.0 0.0 0.0 0.0
0.7 0.5 1.9 0.0 0.0 0.0 0.0 0.1 0.0 0.0 0.0 0.0 0.0 0.4 0.8 0.5 0.6 0.1 0.0 0.0 0.0 0.0 0.0 0.0 0.0 0.0 0.0 0.0 0.0 0.0 0.0 0.0 0.0 0.0 0.0 0.0 0.0 0.0 0.0 0.0 0.0 0.0 0.0 0.0
0.8 1.1 0.3 0.0 0.0 0.0 0.2 0.0 0.0 0.0 0.0 0.0 0.0 0.5 1.6 1.3 0.9 0.3 0.1 0.0 0.0 0.0 0.0 0.0 0.0 0.0 0.0 0.0 0.0 0.0 0.0 0.0 0.0 0.0 0.0 0.0 0.0 0.0 0.0 0.0 0.0 0.0 0.0 0.0
0.8 1.4 1.7 0.0 0.0 0.0 0.0 0.0 0.0 0.0 0.0 0.0 0.3 0.3 0.5 1.3 1.5 0.5 0.2 0.0 0.0 0.0 0.0 0.0 0.0 0.0 0.0 0.0 0.0 0.0 0.0 0.0 0.0 0.0 0.0 0.0 0.0 0.0 0.0 0.0 0.0 0.0 0.1 0.4
0.0 0.1 0.0 0.0 0.0 0.0 0.0 0.0 0.0 0.0 0.1 0.2 0.8 1.5 1.9 1.0 0.0 0.0 0.0 0.0 0.0 0.0 0.0 0.0 0.0 0.0 0.0 0.0 0.0 0.0 0.0 0.0 0.0 0.0 0.0 0.0 0.0 0.0 0.0 0.0 0.1 0.1 0.4 1.0
0.4 0.7 0.3 0.0 0.1 0.0 0.1 0.2 0.3 0.2 0.1 0.1 0.2 0.4 0.7 0.5 0.0 0.0 0.0 0.0 0.0 0.0 0.0 0.0 0.0 0.0 0.0 0.0 0.0 0.0 0.0 0.0 0.0 0.0 0.0 0.0 0.0 0.0 0.1 0.2 0.4 0.4 1.5 2.7
1.4 0.7 0.3 0.3 0.2 0.3 0.5 0.3 0.2 0.3 0.6 0.8 0.6 0.5 0.6 0.6 0.3 0.1 0.0 0.0 0.0 0.0 0.0 0.0 0.0 0.0 0.0 0.0 0.0 0.0 0.0 0.0 0.0 0.0 0.0 0.1 0.3 0.5 0.8 1.6 1.0 2.6 3.4 4.4
6.4 2.6 1.0 1.3 0.5 0.4 0.6 0.9 0.8 0.5 0.2 0.0 0.0 0.0 0.0 0.0 0.0 0.0 0.0 0.0 0.0 0.0 0.0 0.0 0.0 0.0 0.0 0.0 0.0 0.0 0.0 0.0 0.5 0.6 0.9 0.6 0.9 1.4 nan nan nan nan nan 3.8
2.2 1.3 2.2 2.7 1.6 1.0 0.8 0.3 0.0 0.0 0.0 0.0 0.0 0.0 0.0 0.0 0.0 nan 0.0 0.0 0.0 0.1 0.1 0.0 0.0 0.0 0.1 0.1 0.0 0.1 0.3 0.5 0.7 0.6 1.2 2.0 2.7 2.9 4.0 4.3 nan nan nan nan
1.4 1.1 1.2 0.7 0.7 0.2 0.0 0.0 0.0 0.0 0.0 0.0 0.0 0.0 0.0 0.0 0.0 0.0 0.1 0.1 0.0 0.1 0.1 0.1 0.2 1.3 1.1 0.4 0.4 1.1 2.6 1.4 5.0 5.7 5.6 6.3 5.6 5.2 6.5 7.3 9.3 10.4 nan nan
0.8 0.3 0.5 0.1 0.0 0.0 0.0 0.0 0.0 0.0 0.0 0.0 0.0 0.0 0.0 0.1 0.1 0.2 0.1 0.0 0.0 0.1 0.2 0.4 0.8 2.1 1.9 2.1 2.1 2.9 4.0 5.8 5.8 5.9 6.6 6.6 6.6 7.1 7.1 7.2 7.6 7.8 6.6 4.2
0.0 0.0 0.0 0.0 0.0 0.0 0.0 0.0 0.0 0.1 0.1 0.1 0.1 0.1 0.1 0.1 0.3 0.4 0.4 0.4 0.5 1.3 1.0 3.8 1.0 2.0 1.0 0.6 0.8 1.5 2.8 2.2 3.2 5.2 6.3 6.5 6.5 6.9 6.7 7.0 7.2 7.8 7.3 8.0
0.0 0.0 0.0 0.2 0.2 0.1 0.2 0.2 0.3 0.3 0.3 0.3 0.7 0.4 0.2 0.4 0.5 0.7 1.2 1.2 2.2 3.0 2.4 1.8 4.0 3.2 3.0 3.6 3.7 5.7 6.1 6.4 2.2 6.1 6.6 6.5 6.8 6.8 6.2 6.6 7.1 7.1 10.6 14.3
0.0 0.1 0.1 0.2 0.2 0.2 0.2 0.2 0.2 0.3 0.8 1.2 1.4 3.0 4.3 4.0 2.5 3.0 3.7 3.3 3.6 4.3 4.6 6.3 6.4 6.2 6.0 6.0 6.0 6.6 6.3 6.6 6.4 6.9 6.2 7.2 6.4 5.3 6.7 6.8 6.9 7.0 8.0 6.7
0.0 0.1 0.2 0.3 0.4 0.3 0.3 0.6 0.7 0.9 2.9 2.9 5.0 5.9 6.4 7.0 4.8 6.2 6.5 10.5 13.6 8.9 13.6 8.8 2.4 4.8 6.4 6.3 3.4 5.4 5.6 6.4 5.0 4.6 4.6 6.8 8.6 5.8 6.9 8.0 6.8 8.1 5.4 6.5
0.1 0.1 0.1 0.2 0.2 0.2 0.7 0.9 1.4 2.2 3.2 3.1 8.0 10.5 10.3 14.6 13.7 14.2 9.9 10.9 11.1 13.8 9.7 7.9 5.1 4.3 4.5 2.5 2.6 3.1 4.3 6.8 4.6 6.6 8.2 4.4 10.0 14.0 9.3 7.0 6.3 9.7 15.8 12.4
1.7 2.1 2.4 2.5 4.5 4.0 6.4 8.1 6.5 7.3 11.0 13.7 13.3 16.1 15.8 13.7 13.1 14.7 11.2 7.1 9.2 6.0 3.9 1.5 2.9 3.1 2.1 1.7 1.5 4.2 6.7 9.3 9.3 5.8 5.8 12.3 16.8 12.9 15.0 15.6 14.0 16.7 19.5 15.2
3.6 4.2 6.9 6.5 5.4 6.7 7.7 7.5 6.0 8.6 9.3 12.3 17.2 18.9 13.5 9.2 9.7 8.7 10.0 5.4 6.0 3.0 3.2 3.1 2.4 3.6 2.7 5.1 2.0 7.3 3.9 4.6 6.7 6.9 7.1 11.4 13.7 20.2 20.5 17.7 17.6 19.2 18.7 19.0
4.4 4.4 4.7 5.8 5.9 6.7 5.6 5.7 10.0 8.3 12.0 11.4 13.3 10.4 7.9 6.4 5.8 6.2 6.2 3.2 2.8 4.4 2.2 3.9 4.8 5.5 5.9 8.9 8.3 10.0 9.9 10.4 10.7 10.2 10.4 15.9 15.7 25.7 15.1 14.9 16.5 17.2 22.4 15.3
4.5 4.2 4.8 4.9 4.0 2.4 3.0 6.2 3.9 4.4 9.3 6.0 7.1 9.1 3.5 6.8 9.3 2.6 2.5 5.9 6.0 15.2 11.6 6.4 8.3 6.1 6.7 11.5 12.0 14.2 13.4 14.8 15.5 17.6 9.0 8.9 23.3 18.5 15.0 22.2 14.1 17.1 18.4 15.6
4.5 4.4 4.3 5.0 3.4 5.2 3.1 3.4 2.8 2.5 1.4 1.5 1.4 1.1 1.0 1.8 7.3 4.0 5.7 5.6 6.6 5.2 7.7 6.4 6.3 7.0 14.2 15.5 15.7 16.6 17.0 15.8 17.4 20.2 14.6 20.2 18.2 26.6 24.0 19.1 23.5 23.1 22.8 19.0
3.3 4.3 4.5 3.6 3.9 3.2 2.7 1.8 2.4 2.2 1.7 5.1 3.2 10.8 7.7 4.8 4.1 4.3 6.0 6.6 4.6 6.2 5.6 13.4 18.2 18.0 16.8 12.8 15.1 15.6 12.6 9.2 14.0 14.6 17.3 16.5 16.2 13.7 18.1 16.6 22.2 26.1 30.8 32.1
3.8 1.6 2.8 2.3 1.9 2.0 1.9 2.0 3.6 4.9 5.3 9.0 8.0 7.9 5.0 8.2 10.3 6.8 8.3 12.5 12.8 13.4 13.5 16.1 14.3 10.4 8.9 14.7 12.7 11.8 11.8 12.7 10.7 10.8 21.1 24.5 23.1 30.4 27.5 27.0 30.0 31.5 28.0 24.3
Water_Equivalent
0.00 0.00 0.00 0.00 0.00 0.00 0.01 0.01 0.15 0.00 0.00 0.00 0.00 0.00 0.00 0.00 0.00 0.00 0.00 0.00 0.00 0.00 0.00 0.00 0.00 0.00 0.00 0.00 0.00 0.00 0.00 0.00 0.00 0.00 0.00 0.00 0.00 0.00 0.00 0.00 0.00 0.00 0.00 0.00
0.00 0.00 0.00 0.00 0.00 0.00 0.00 0.00 0.00 0.00 0.00 0.00 0.00 0.00 0.00 0.00 0.00 0.00 0.00 0.00 0.00 0.00 0.00 0.00 0.00 0.00 0.00 0.00 0.00 0.00 0.00 0.00 0.00 0.00 0.00 0.00 0.00 0.00 0.00 0.00 0.00 0.00 0.00 0.00
0.00 0.00 0.00 0.04 0.00 0.00 0.00 0.00 0.00 0.01 0.00 0.00 0.00 0.00 0.00 0.00 0.00 0.00 0.00 0.00 0.00 0.00 0.00 0.00 0.00 0.00 0.00 0.00 0.00 0.00 0.00 0.00 0.00 0.00 0.00 0.00 0.00 0.00 0.00 0.00 0.00 0.00 0.00 0.00
0.14 0.02 0.24 0.00 0.00 0.00 0.00 0.00 0.00 0.00 0.00 0.00 0.00 0.00 0.00 0.00 0.00 0.00 0.00 0.00 0.00 0.00 0.00 0.00 0.00 0.00 0.00 0.00 0.00 0.00 0.00 0.00 0.00 0.00 0.00 0.00 0.00 0.00 0.00 0.00 0.00 0.00 0.00 0.00
0.35 0.07 0.00 0.00 0.00 0.00 0.00 0.00 0.00 0.00 0.00 0.00 0.00 0.00 0.02 0.02 0.03 0.01 0.00 0.00 0.02 0.00 0.00 0.00 0.00 0.00 0.00 0.00 0.00 0.00 0.00 0.00 0.00 0.00 0.00 0.00 0.00 0.00 0.00 0.00 0.00 0.00 0.00 0.00
0.19 0.08 0.47 0.00 0.00 0.00 0.00 0.01 0.00 0.00 0.00 0.00 0.00 0.08 0.14 0.11 0.14 0.02 0.01 0.01 0.00 0.00 0.00 0.00 0.00 0.00 0.00 0.00 0.00 0.00 0.00 0.00 0.00 0.00 0.00 0.00 0.00 0.00 0.00 0.00 0.00 0.00 0.00 0.00
0.23 0.24 0.07 0.00 0.00 0.00 0.06 0.00 0.00 0.00 0.00 0.00 0.01 0.11 0.37 0.32 0.24 0.09 0.04 0.00 0.00 0.00 0.00 0.00 0.00 0.00 0.00 0.00 0.00 0.00 0.00 0.00 0.00 0.00 0.00 0.00 0.00 0.00 0.00 0.00 0.00 0.00 0.00 0.01
0.22 0.30 0.38 0.00 0.00 0.01 0.00 0.00 0.00 0.00 0.00 0.00 0.06 0.07 0.09 0.28 0.31 0.08 0.03 0.00 0.00 0.00 0.00 0.00 0.00 0.00 0.00 0.00 0.00 0.00 0.00 0.00 0.00 0.00 0.00 0.00 0.00 0.00 0.00 0.00 0.00 0.00 0.05 0.10
0.01 0.05 0.00 0.00 0.00 0.00 0.00 0.00 0.01 0.01 0.01 0.06 0.18 0.32 0.42 0.14 0.01 0.00 0.00 0.00 0.00 0.00 0.00 0.00 0.00 0.00 0.00 0.00 0.00 0.00 0.00 0.00 0.00 0.00 0.00 0.00 0.00 0.00 0.00 0.00 0.05 0.02 0.13 0.25
0.08 0.18 0.05 0.00 0.01 0.00 0.02 0.04 0.05 0.04 0.02 0.02 0.02 0.06 0.09 0.07 0.00 0.00 0.00 0.00 0.00 0.00 0.00 0.00 0.00 0.00 0.00 0.00 0.00 0.00 0.00 0.00 0.00 0.00 0.00 0.00 0.00 0.00 0.01 0.07 0.12 0.14 0.34 0.49
0.32 0.13 0.06 0.05 0.04 0.06 0.10 0.05 0.03 0.04 0.11 0.12 0.10 0.06 0.08 0.07 0.04 0.01 0.00 0.00 0.00 0.00 0.00 0.00 0.00 0.00 0.00 0.00 0.00 0.00 0.00 0.00 0.00 0.01 0.01 0.02 0.05 0.08 0.15 0.26 0.22 0.53 0.64 0.83
1.11 0.54 0.18 0.22 0.08 0.07 0.09 0.20 0.15 0.07 0.03 0.00 0.00 0.00 0.00 0.00 0.00 0.00 0.00 0.00 0.00 0.00 0.00 0.00 0.00 0.00 0.00 0.00 0.00 0.00 0.00 0.01 0.11 0.14 0.18 0.10 0.14 0.21 nan nan nan nan nan 0.82
0.38 0.25 0.40 0.46 0.27 0.16 0.12 0.04 0.00 0.00 0.00 0.00 0.00 0.00 0.00 0.00 0.00 nan 0.00 0.00 0.00 0.01 0.01 0.01 0.00 0.00 0.01 0.01 0.00 0.02 0.05 0.10 0.16 0.14 0.23 0.33 0.45 0.56 0.74 0.83 nan nan nan nan
0.24 0.20 0.18 0.11 0.10 0.03 0.00 0.00 0.00 0.00 0.00 0.00 0.00 0.00 0.00 0.00 0.00 0.00 0.01 0.01 0.00 0.01 0.01 0.01 0.03 0.20 0.19 0.07 0.07 0.19 0.50 0.45 0.96 1.06 1.04 1.17 1.04 0.93 1.16 1.16 1.45 1.61 nan nan
0.12 0.05 0.07 0.01 0.00 0.00 0.00 0.00 0.00 0.00 0.00 0.01 0.01 0.01 0.00 0.01 0.01 0.02 0.01 0.00 0.00 0.01 0.03 0.07 0.12 0.29 0.32 0.37 0.37 0.47 0.66 0.93 1.00 1.08 1.20 1.15 1.09 1.09 1.04 1.03 1.07 1.05 0.90 0.74
0.00 0.00 0.00 0.00 0.00 0.00 0.00 0.00 0.00 0.02 0.02 0.02 0.02 0.02 0.01 0.02 0.03 0.04 0.04 0.04 0.07 0.15 0.11 0.66 0.15 0.25 0.15 0.09 0.12 0.24 0.45 0.65 0.64 0.85 1.02 1.01 0.99 1.03 0.96 0.99 0.99 1.06 0.96 0.98
0.00 0.00 0.00 0.02 0.03 0.02 0.03 0.04 0.04 0.05 0.03 0.04 0.08 0.05 0.03 0.04 0.05 0.07 0.11 0.12 0.32 0.45 0.31 0.22 0.44 0.38 0.38 0.47 0.51 0.79 0.84 0.82 0.74 0.83 0.89 0.88 0.95 0.95 0.84 0.92 0.97 0.91 1.40 2.05
0.00 0.01 0.01 0.02 0.03 0.04 0.03 0.03 0.03 0.04 0.09 0.13 0.17 0.50 0.74 0.66 0.24 0.31 0.40 0.39 0.51 0.58 0.49 0.68 0.72 0.73 0.72 0.72 0.70 0.78 0.78 0.83 0.85 0.93 0.83 1.04 0.86 0.73 0.93 0.92 0.92 0.93 1.06 0.95
0.01 0.02 0.03 0.04 0.06 0.04 0.05 0.08 0.08 0.11 0.47 0.40 0.83 0.81 0.86 0.97 0.50 0.62 0.68 1.40 1.76 0.88 1.29 0.91 0.80 0.73 0.66 0.75 0.56 0.68 0.78 1.01 0.72 0.58 0.64 2.02 1.35 0.82 0.98 1.21 0.99 1.28 0.79 0.91
0.02 0.02 0.02 0.03 0.03 0.03 0.09 0.12 0.21 0.26 0.35 0.37 1.16 1.51 1.20 1.81 1.72 1.81 1.17 1.11 1.02 1.33 0.95 0.77 0.51 0.42 0.44 0.33 0.65 0.40 0.68 1.20 0.72 1.22 1.48 0.72 1.58 2.25 1.46 2.18 1.00 1.54 2.62 1.96
0.25 0.31 0.34 0.36 0.61 0.58 0.99 1.25 0.94 0.89 1.30 1.83 1.86 2.17 1.99 1.59 1.68 2.04 1.37 0.73 0.81 0.61 0.40 0.37 0.32 0.36 0.22 0.21 0.23 0.81 1.36 1.89 1.87 1.13 1.10 2.24 2.93 2.07 2.40 2.69 2.40 2.90 3.28 2.51
0.50 0.58 0.99 0.89 0.72 0.84 0.98 0.95 0.74 1.13 1.17 1.65 2.36 2.60 1.91 0.98 1.22 1.11 1.37 0.60 0.60 0.99 0.43 0.42 0.30 1.09 0.74 1.65 0.41 1.60 0.81 0.95 1.32 1.32 1.37 2.18 2.39 3.26 3.30 2.88 2.77 3.23 3.23 3.32
0.54 0.53 0.57 0.73 0.72 0.71 0.63 0.66 1.39 1.19 1.69 1.56 1.86 1.36 1.01 0.74 0.70 0.84 0.79 0.29 0.37 1.24 0.34 0.74 1.52 1.82 1.93 2.05 1.88 2.15 2.06 2.06 2.06 1.88 1.94 2.92 2.74 4.20 2.22 2.18 2.55 2.63 3.70 2.44
0.54 0.51 0.56 0.57 0.47 0.25 0.33 0.60 0.38 0.44 1.32 0.78 1.02 1.40 0.53 1.19 1.75 0.37 0.38 1.96 1.94 3.83 2.77 1.54 2.23 2.00 2.22 2.54 2.43 2.75 2.55 2.74 2.69 2.92 1.47 2.76 4.04 2.85 2.22 3.24 1.94 2.59 2.77 2.41
0.50 0.49 0.49 0.58 0.35 0.57 0.30 0.33 0.26 0.24 0.15 0.18 0.16 0.13 0.15 0.34 1.40 0.75 1.24 1.22 2.08 1.35 1.67 2.02 2.09 2.30 3.09 3.22 2.97 2.91 2.86 2.44 2.72 3.12 2.17 3.29 2.96 4.25 3.66 2.72 3.12 3.34 3.26 2.86
0.33 0.46 0.46 0.35 0.40 0.35 0.31 0.24 0.34 0.34 0.30 0.95 0.57 2.12 1.54 0.93 0.81 0.83 1.20 1.79 0.93 1.90 1.13 2.81 3.62 3.55 3.29 2.29 2.61 2.64 1.99 1.41 2.06 2.03 2.34 2.31 2.29 1.87 2.27 2.09 2.87 3.67 4.57 5.01
0.40 0.31 0.32 0.26 0.22 0.26 0.26 0.27 0.59 0.76 1.11 1.65 1.40 1.44 0.89 1.52 1.96 1.57 2.36 2.42 2.42 2.61 2.65 3.26 2.82 2.67 1.61 2.67 2.21 1.89 1.75 1.87 2.76 1.46 2.67 3.12 2.93 4.06 3.58 3.64 4.20 4.66 3.91 3.30
SL_Ratio
nan nan nan 4.0 nan nan 4.4 4.4 5.6 nan nan nan nan nan nan nan nan nan nan nan nan nan nan nan nan nan nan nan nan nan nan nan nan nan nan nan nan nan nan nan nan nan nan nan
nan nan nan nan nan nan nan nan 0.0 nan nan nan nan nan nan nan nan nan nan nan nan nan nan nan nan nan nan nan nan nan nan nan nan nan nan nan nan nan nan nan nan nan nan nan
5.0 nan nan 3.4 nan nan nan nan nan 5.0 nan nan nan nan nan nan nan nan nan nan nan nan nan nan nan nan nan nan nan nan nan nan nan nan nan nan nan nan nan nan nan nan nan nan
3.4 3.0 4.5 3.6 nan nan nan nan nan nan nan nan nan nan nan nan nan nan nan nan 3.3 nan nan nan nan nan nan nan nan nan nan nan nan nan nan nan nan nan nan nan nan nan nan nan
3.8 3.8 nan nan nan nan nan nan nan nan nan nan nan nan 2.9 3.3 3.6 5.3 5.7 2.9 2.5 2.0 nan nan nan nan nan nan nan nan nan nan nan nan nan nan nan nan nan nan nan nan nan nan
3.8 5.9 4.1 nan nan nan nan 5.0 nan nan nan nan nan 5.3 5.3 4.9 3.9 5.2 5.0 2.5 nan 2.0 0.0 nan nan nan nan nan nan nan nan nan nan nan nan nan nan nan nan nan nan nan nan 6.7
3.6 4.5 3.6 nan nan nan 3.4 3.6 nan nan nan nan 4.1 4.2 4.3 4.0 3.7 3.5 3.1 nan nan nan nan nan nan nan nan nan nan nan nan nan nan nan nan nan nan nan nan nan nan nan 5.0 4.3
3.6 4.5 4.6 nan nan 6.0 2.5 nan nan nan 0.0 nan 4.6 5.0 5.5 4.8 4.7 5.7 6.6 nan nan nan nan nan nan nan nan nan nan nan nan nan nan nan nan nan nan nan nan nan nan 2.5 2.9 3.9
3.6 3.3 nan nan nan nan nan 5.0 3.6 2.9 5.3 3.9 4.5 4.6 4.5 7.0 5.8 nan nan nan nan nan nan nan nan nan nan nan nan nan nan nan nan nan nan nan nan nan nan nan 2.7 2.7 3.4 4.2
5.8 4.0 5.5 3.8 4.1 5.0 5.2 5.2 6.1 6.2 6.4 6.5 6.8 6.6 7.4 7.8 10.0 nan 8.0 nan nan nan nan nan nan nan nan nan nan nan nan nan nan nan 10.0 5.0 5.0 10.0 5.9 3.0 3.1 3.2 4.4 5.6
4.6 5.3 5.2 5.5 5.2 5.7 5.5 6.2 6.5 5.9 5.5 6.5 6.5 7.5 7.5 8.5 8.4 7.9 10.0 nan nan nan 10.0 6.7 nan nan nan nan nan nan nan nan 5.0 4.5 5.9 5.0 5.9 6.4 5.2 6.4 4.6 4.9 5.3 5.3
5.8 4.8 5.3 5.9 5.7 6.0 6.2 4.6 5.2 6.6 7.8 7.1 6.7 6.7 nan 8.0 10.0 10.0 10.0 10.0 10.0 7.5 7.5 8.0 6.7 7.5 7.5 nan nan nan 5.0 5.0 4.3 4.1 5.1 5.9 6.3 6.8 nan nan nan nan nan 4.6
5.7 5.2 5.5 5.9 6.0 6.2 6.6 6.9 7.1 nan nan nan nan nan 0.0 8.6 8.9 nan 10.0 10.0 9.3 9.2 8.6 8.2 8.5 8.0 7.7 6.4 nan 5.9 5.9 5.7 4.6 4.0 5.4 6.0 6.0 5.2 5.3 5.2 nan nan nan nan
5.9 5.7 6.6 6.8 7.8 6.4 5.7 nan nan nan nan nan nan nan 0.0 10.0 10.0 10.0 9.7 9.4 9.2 8.9 9.2 8.9 6.3 6.4 5.9 5.7 5.3 5.4 5.2 3.0 5.1 5.4 5.4 5.4 5.4 5.6 5.6 6.2 6.4 6.4 nan nan
6.8 6.0 7.0 7.9 nan nan nan nan nan 10.0 7.5 2.7 2.7 4.5 10.0 8.4 9.8 10.6 10.0 8.5 9.1 7.2 7.1 6.7 6.9 7.2 6.0 5.7 5.8 6.2 6.0 6.3 5.8 5.4 5.5 5.8 6.0 6.6 6.8 6.9 7.1 7.5 7.4 5.6
nan 8.0 5.0 nan nan nan nan nan 10.0 6.9 7.8 7.0 6.9 7.6 8.1 8.5 9.8 10.3 10.2 10.1 7.8 9.1 9.0 5.7 6.8 8.0 7.1 6.7 6.8 6.4 6.3 3.4 5.0 6.1 6.2 6.5 6.6 6.7 7.0 7.0 7.3 7.4 7.6 8.1
nan 8.6 nan 6.3 6.3 6.3 6.4 6.0 6.7 7.5 7.9 8.4 8.7 8.1 8.0 8.4 9.3 10.2 10.6 9.8 6.9 6.8 7.6 8.4 9.1 8.3 7.9 7.6 7.3 7.2 7.3 7.8 3.0 7.4 7.3 7.3 7.1 7.2 7.4 7.2 7.3 7.8 7.6 7.0
10.0 8.9 8.2 7.6 7.4 6.6 6.8 6.6 7.1 7.7 8.6 9.0 8.4 6.0 5.9 6.1 10.2 9.8 9.2 8.6 7.0 7.3 9.4 9.2 8.9 8.5 8.3 8.3 8.5 8.4 8.0 8.0 7.5 7.4 7.5 6.9 7.4 7.3 7.2 7.4 7.5 7.5 7.5 7.0
5.2 5.9 6.3 6.8 6.6 6.7 7.3 7.8 8.3 8.5 6.2 7.2 6.0 7.2 7.4 7.3 9.5 10.1 9.6 7.5 7.8 10.0 10.5 9.6 3.0 6.6 9.7 8.5 6.0 8.0 7.2 6.3 7.0 7.9 7.3 3.4 6.4 7.1 7.1 6.7 6.8 6.4 6.8 7.1
6.8 6.5 6.8 7.7 7.4 7.4 7.9 8.0 6.4 8.5 9.1 8.3 6.9 7.0 8.6 8.1 8.0 7.8 8.5 9.8 10.9 10.4 10.2 10.2 10.0 10.3 10.3 7.7 4.0 7.7 6.3 5.6 6.3 5.4 5.5 6.1 6.3 6.2 6.4 3.2 6.3 6.3 6.0 6.3
6.8 6.9 7.2 7.0 7.4 6.8 6.5 6.5 6.9 8.2 8.4 7.5 7.1 7.4 8.0 8.6 7.8 7.2 8.2 9.7 11.4 10.0 9.6 4.1 9.0 8.7 9.2 8.2 6.5 5.2 4.9 4.9 4.9 5.2 5.3 5.5 5.7 6.2 6.3 5.8 5.8 5.8 5.9 6.1
7.3 7.3 6.9 7.2 7.4 8.0 7.8 7.9 8.1 7.6 7.9 7.5 7.3 7.3 7.1 9.4 7.9 7.8 7.3 9.0 10.0 3.0 7.5 7.3 7.8 3.3 3.7 3.1 5.0 4.6 4.8 4.9 5.1 5.2 5.1 5.2 5.7 6.2 6.2 6.1 6.3 6.0 5.8 5.7
8.1 8.3 8.2 8.0 8.1 9.4 8.9 8.7 7.2 7.0 7.1 7.3 7.2 7.7 7.8 8.7 8.4 7.4 7.8 11.1 7.5 3.5 6.4 5.3 3.2 3.0 3.0 4.3 4.4 4.6 4.8 5.1 5.2 5.4 5.3 5.4 5.7 6.1 6.8 6.8 6.5 6.5 6.1 6.3
8.4 8.4 8.6 8.5 8.6 9.6 9.2 10.3 10.1 10.0 7.0 7.6 7.0 6.5 6.6 5.7 5.3 6.8 6.5 3.0 3.1 4.0 4.2 4.2 3.7 3.0 3.0 4.5 5.0 5.2 5.2 5.4 5.8 6.0 6.1 3.2 5.8 6.5 6.8 6.9 7.3 6.6 6.6 6.5
9.0 8.9 8.8 8.6 9.7 9.2 10.2 10.5 10.4 10.3 9.2 8.5 8.8 8.5 6.7 5.3 5.2 5.4 4.6 4.6 3.2 3.9 4.6 3.2 3.0 3.0 4.6 4.8 5.3 5.7 5.9 6.5 6.4 6.5 6.7 6.1 6.2 6.3 6.5 7.0 7.5 6.9 7.0 6.6
10.0 9.5 9.7 10.4 9.6 9.1 8.7 7.6 7.1 6.6 5.5 5.4 5.6 5.1 5.0 5.1 5.0 5.2 5.0 3.7 5.0 3.3 4.9 4.8 5.0 5.1 5.1 5.6 5.8 5.9 6.4 6.5 6.8 7.2 7.4 7.2 7.1 7.3 8.0 7.9 7.7 7.1 6.7 6.4
9.4 5.1 8.6 8.8 8.5 7.7 7.3 7.2 6.1 6.5 4.7 5.4 5.7 5.5 5.6 5.4 5.2 4.3 3.5 5.2 5.3 5.1 5.1 4.9 5.1 3.9 5.5 5.5 5.8 6.3 6.8 6.8 3.9 7.4 7.9 7.8 7.9 7.5 7.7 7.4 7.1 6.8 7.2 7.4